Location: Poughquag
(41.6090°N, 73.6820°W)
Time: 22:54:09
(UTC-04:00)

Altair - Visible Passes

Search period start: 15 September 2024 00:00
Search period end: 25 September 2024 00:00
Orbit: 1501 x 1682 km, 47.2° (Epoch: 14 September)

Date Brightness Start Highest point End Pass type
(mag) Time Alt. Az. Time Alt. Az. Time Alt. Az.
15 Sep 8.9 01:45:07 25° E 01:45:07 25° E 01:49:58 10° ENE visible
15 Sep 7.5 03:43:08 60° SW 03:45:26 82° SSE 03:55:40 10° ENE visible
15 Sep 7.9 05:41:09 11° W 05:50:53 65° N 06:01:01 10° ENE visible
16 Sep 9.2 01:21:16 20° E 01:21:16 20° E 01:24:31 10° ENE visible
16 Sep 7.4 03:19:17 73° SSW 03:20:12 78° SSE 03:30:23 10° ENE visible
16 Sep 7.9 05:17:18 17° W 05:25:33 66° N 05:35:42 10° ENE visible
17 Sep 9.4 00:57:24 14° E 00:57:24 14° E 00:59:01 10° ENE visible
17 Sep 7.5 02:55:25 73° SE 02:55:25 73° SE 03:05:05 10° ENE visible
17 Sep 7.8 04:53:26 24° W 05:00:13 67° N 05:10:23 10° ENE visible
18 Sep 7.8 02:31:31 60° E 02:31:31 60° E 02:39:49 10° ENE visible
18 Sep 7.8 04:29:32 32° W 04:34:53 69° NNW 04:45:04 10° ENE visible
19 Sep 8.2 02:07:38 47° E 02:07:38 47° E 02:14:31 10° ENE visible
19 Sep 7.7 04:05:38 42° W 04:09:34 70° NNW 04:19:46 10° ENE visible
19 Sep 8.0 06:05:21 10° WNW 06:15:30 68° N 06:25:37 10° E visible
20 Sep 8.5 01:43:43 36° E 01:43:43 36° E 01:49:13 10° ENE visible
20 Sep 7.6 03:41:43 55° WNW 03:44:14 72° NNW 03:54:27 10° ENE visible
20 Sep 8.0 05:40:03 10° WNW 05:50:10 67° N 06:00:17 10° E visible
21 Sep 8.9 01:19:49 28° ENE 01:19:49 28° ENE 01:23:55 10° ENE visible
21 Sep 7.5 03:17:49 69° WNW 03:18:56 74° NNW 03:29:09 10° ENE visible
21 Sep 7.9 05:15:50 14° WNW 05:24:49 66° N 05:34:56 10° E visible
22 Sep 9.2 00:55:54 21° ENE 00:55:54 21° ENE 00:58:36 10° ENE visible
22 Sep 7.6 02:53:55 76° N 02:53:55 76° N 03:03:51 10° ENE visible
22 Sep 7.9 04:51:55 20° WNW 04:59:28 65° N 05:09:36 10° E visible
23 Sep 9.4 00:32:00 15° ENE 00:32:00 15° ENE 00:33:17 10° ENE visible
23 Sep 7.8 02:30:01 66° NE 02:30:01 66° NE 02:38:33 10° ENE visible
23 Sep 7.9 04:28:01 27° WNW 04:34:08 64° N 04:44:16 10° E visible
24 Sep 8.1 02:06:08 52° ENE 02:06:08 52° ENE 02:13:15 10° ENE visible
24 Sep 7.9 04:04:08 36° WNW 04:08:48 64° N 04:18:55 10° E visible
24 Sep 7.8 06:04:14 10° WNW 06:14:27 88° NNE 06:24:38 10° ESE visible
